Hourly Data Report for November 18, 2016

All times are specified in Local Standard Time (LST). Add 1 hour to adjust for Daylight Saving Time where and when it is observed.

KITCHENER/WATERLOO
ONTARIO

43°27'39.000" N
80°22'43.000" W
321.60 m
6144239
71368
YKF

Download Data

Hourly Data (November 2016)
Hourly Data Report for November 18, 2016
Temp Definition
°C
Dew Point Temp Definition
°C
Rel Hum Definition
%
Wind Dir Definition
10's deg

Wind Spd Definition
km/h
Visibility Definition
km
Stn Press Definition
kPa
Hmdx Definition


Wind Chill Definition


Weather Definition


TIME
00:00 Legend Double Dagger 2.1 1.4 95 10 9 16.1 97.87     LegendNANA
01:00 Legend Double Dagger 2.2 1.6 96 8 4 9.7 97.89     Fog
02:00 Legend Double Dagger 1.5 1.2 98 7 4 4.0 97.89     Fog
03:00 Legend Double Dagger 1.4 1.1 98 11 4 1.6 97.90     Rain,Fog
04:00 Legend Double Dagger 1.5 1.2 98 9 5 0.4 97.89     Fog
05:00 Legend Double Dagger 0.8 0.7 99 8 4 0.4 97.89     Fog
06:00 Legend Double Dagger 0.6 0.5 99 7 4 0.2 97.87     Fog
07:00 Legend Double Dagger 0.6 0.5 99 10 5 0.0 97.86     Rain,Heavy Snow
08:00 Legend Double Dagger 3.9 3.6 98 13 8 2.4 97.85     Fog
09:00 Legend Double Dagger 8.4 8.1 98 18 8 8.1 97.84     Fog
10:00 Legend Double Dagger 12.6 9.3 80 19 11 16.1 97.83     LegendNANA
11:00 Legend Double Dagger 15.3 9.4 68 19 18 16.1 97.81     LegendNANA
12:00 Legend Double Dagger 17.5 9.5 59 20 21 16.1 97.74     LegendNANA
13:00 Legend Double Dagger 19.2 8.9 51 21 22 16.1 97.67     LegendNANA
14:00 Legend Double Dagger 19.2 8.3 49 17 24 16.1 97.58     LegendNANA
15:00 Legend Double Dagger 18.7 7.4 48 18 22 16.1 97.50     LegendNANA
16:00 Legend Double Dagger 18.0 7.3 49 19 24 16.1 97.51     LegendNANA
17:00 Legend Double Dagger 15.0 7.4 60 15 13 16.1 97.46     LegendNANA
18:00 Legend Double Dagger 14.3 7.4 63 17 11 16.1 97.48     LegendNANA
19:00 Legend Double Dagger 14.2 7.1 62 17 15 16.1 97.44     LegendNANA
20:00 Legend Double Dagger 13.6 6.8 63 16 13 16.1 97.40     LegendNANA
21:00 Legend Double Dagger 14.6 6.8 59 18 17 16.1 97.40     LegendNANA
22:00 Legend Double Dagger 14.8 6.9 59 19 17 16.1 97.42     LegendNANA
23:00 Legend Double Dagger 15.0 6.9 58 18 17 16.1 97.30     LegendNANA

Notes on Data Quality.

Legend

  • E = Estimated
  • M = Missing
  • NA = Not Available
  • ‡ = Partner data that is not subject to review by the National Climate Archives
Date modified: